Whitecourt,

8:17 AM MDT on August 16, 2017 (GMT -0600)
Whitecourt

Weather History for CYZU - November, 2012

Change the Weather History Date:

Thursday, November 29, 2012

  Actual Average Record
Temperature  
Mean Temperature 2 °F -  
Max Temperature 5 °F 24 °F 55 °F (2010)
Min Temperature 0 °F 11 °F -27 °F (2006)
Degree Days  
Heating Degree Days 62    
Moisture  
Dew Point -3 °F    
Average Humidity 76    
Maximum Humidity 85    
Minimum Humidity 64    
Precipitation  
Precipitation 0.00 in - - ()
Sea Level Pressure  
Sea Level Pressure 30.01 in    
Wind  
Wind Speed 9 mph ()    
Max Wind Speed 16 mph    
Max Gust Speed 18 mph    
Visibility 10.3 miles    
Events Snow    
Averages and records for this station are not official NWS values.
T = Trace of Precipitation, MM = Missing Value Source: Averaged Metar Reports

Daily Weather History Graph

Daily Weather History Graph

Search for Another Location

Airport or City:

Trip Planner

Search our weather history database for the weather conditions in past years. The results will help you decide how hot, cold, wet, or windy it might be!

Date:

Astronomy

Nov. 29, 2012 Rise Set
Actual Time 8:37 AM MST 4:25 PM MST
Civil Twilight 7:55 AM MST 5:07 PM MST
Nautical Twilight 7:09 AM MST 5:53 PM MST
Astronomical Twilight 6:27 AM MST 6:35 PM MST
Moon 5:31 PM MST (11/29) 9:28 AM MST (11/29)
Length of Visible Light 9h 12m
Length of Day
7h 48m
Full, 99% of the Moon is Illuminated
Nov 29
Full
Dec 6
Last Quarter
Dec 13
New
Dec 19
First Quarter
Dec 28
Full

Hourly Weather History & Observations

Time (MST) Temp. Windchill Dew Point Humidity Pressure Visibility Wind Dir Wind Speed Gust Speed Precip Events Conditions
6:00 AM 1.4 °F -14.5 °F -4.0 °F 78% 30.10 in 1.5 mi East 10.4 mph - N/A Snow Light Snow
7:00 AM 1.4 °F -13.5 °F -4.0 °F 78% 30.09 in 10.0 mi East 9.2 mph - N/A Snow Light Snow
8:00 AM 1.4 °F -15.3 °F -4.0 °F 78% 30.09 in 5.0 mi East 11.5 mph - N/A Snow Light Snow
9:00 AM 1.4 °F -12.5 °F -4.0 °F 78% 30.09 in 3.0 mi East 8.1 mph - N/A Snow Light Snow
10:00 AM 3.2 °F -11.3 °F -2.2 °F 78% 30.08 in 8.0 mi East 9.2 mph - N/A Snow Light Snow
10:55 AM - - - N/A% - 15.0 mi ESE 8.1 mph - N/A   Unknown
11:00 AM 3 °F - -3 °F 67% 30.06 in 15 mi ESE 9.2 mph - - Snow Light Snow
11:00 AM 3.2 °F -13.1 °F -2.2 °F 78% 30.06 in 15.0 mi East 11.5 mph - N/A Snow Low Drifting Snow
12:00 PM 3.2 °F -12.2 °F -2.2 °F 78% 30.04 in 10.0 mi ESE 10.4 mph - N/A Snow Light Snow
1:00 PM 3.2 °F -15.9 °F -2.2 °F 78% 30.02 in 10.0 mi ESE 16.1 mph - N/A Snow Light Snow
2:00 PM 5.0 °F -10.0 °F -2.2 °F 72% 29.99 in 10.0 mi ESE 10.4 mph 18.4 mph N/A Snow Light Snow
3:00 PM 5.0 °F -11.6 °F -2.2 °F 72% 29.99 in 10.0 mi East 12.7 mph - N/A Snow Light Snow
4:00 PM 5.0 °F -10.0 °F -2.2 °F 72% 29.99 in 12.0 mi ESE 10.4 mph - N/A Snow Light Snow
5:00 PM 4 °F - -2 °F 64% 29.97 in 15 mi ESE 9.2 mph - - Snow Light Snow
5:00 PM 3.2 °F -11.3 °F -2.2 °F 78% 29.97 in 15.0 mi ESE 9.2 mph - N/A Snow Light Snow
5:36 PM - - - N/A% - 12.0 mi East 8.1 mph - N/A   Unknown
6:00 PM 3.2 °F -13.1 °F -2.2 °F 78% 29.97 in 12.0 mi East 11.5 mph - N/A Snow Light Snow
7:00 PM 3.2 °F -12.2 °F -2.2 °F 78% 29.95 in 12.0 mi East 10.4 mph - N/A Snow Light Snow
8:00 PM 3.2 °F -14.6 °F -2.2 °F 78% 29.93 in 10.0 mi East 13.8 mph - N/A Snow Light Snow
9:00 PM 3.2 °F -13.9 °F -2.2 °F 78% 29.92 in 6.0 mi East 12.7 mph - N/A Snow Light Snow
10:00 PM 3.2 °F -11.3 °F -0.4 °F 85% 29.91 in 10.0 mi East 9.2 mph - N/A Snow Light Snow